Kelso-Longview, WA
on Tuesday, February 5, 2013

Tuesday
Previous Day Next Day
Daily Summary
 ActualAverage (KSPB)Record (KSPB)
Temperature
Mean Temperature °F / °C °F / °C  
Max Temperature 53°F / 12°C °F / °C 57°F / 13°C (2012)
Min Temperature 44°F / 7°C °F / °C 19°F / -7°C (2014)
Degree Days
Heating Degree Days 16    
Month to date heating degree days  
Since 1 July heating degree days  
Cooling Degree Days 0    
Month to date cooling degree days  
Year to date cooling degree days  
Moisture
Dew Point 40°F / 4°C   
Average Humidity 79    
Maximum Humidity 93    
Minimum Humidity 62    
Precipitation
Precipitation 0.07 in / 1.78 cm in / cm 0.63 in / 1.60 cm (1999)
Month to date precipitation  
Year to date precipitation  
Wind
Wind Speed 8 mph / 13 km/h   
Max Wind Speed 15 mph / 24 km/h   
Max Gust Speed 23 mph / 37 km/h   
Visibility 10 miles / 16 kilometers   
Events     

Key: T is trace of precipitation, MM is missing value
Source: NWS Daily Summary
Time(PST)TemperatureDew PointHumidity Pressure Visibility Wind DirectionWind SpeedGust SpeedPrecipitationEvents Conditions
12:15 AM 44.6°F / 7.0°C 39.2°F / 4.0°C 81% 29.95 in / 1014.1 hPa 10.0 miles / 16.1 kilometers Calm Calm - N/A   Overcast
12:35 AM 44.6°F / 7.0°C 39.2°F / 4.0°C 81% 29.95 in / 1014.1 hPa 10.0 miles / 16.1 kilometers SSE 5.8 mph / 9.3 km/h - N/A   Mostly Cloudy
12:55 AM 44.6°F / 7.0°C 39.2°F / 4.0°C 81% 29.94 in / 1013.8 hPa 10.0 miles / 16.1 kilometers SE 8.1 mph / 13.0 km/h - N/A   Mostly Cloudy
1:15 AM 44.6°F / 7.0°C 39.2°F / 4.0°C 81% 29.94 in / 1013.8 hPa 10.0 miles / 16.1 kilometers SSE 6.9 mph / 11.1 km/h - N/A   Overcast
1:35 AM 44.6°F / 7.0°C 39.2°F / 4.0°C 81% 29.94 in / 1013.8 hPa 10.0 miles / 16.1 kilometers SSE 6.9 mph / 11.1 km/h - N/A   Overcast
1:55 AM 44.6°F / 7.0°C 39.2°F / 4.0°C 81% 29.95 in / 1014.1 hPa 10.0 miles / 16.1 kilometers SSE 8.1 mph / 13.0 km/h - N/A   Mostly Cloudy
2:15 AM 44.6°F / 7.0°C 39.2°F / 4.0°C 81% 29.95 in / 1014.1 hPa 10.0 miles / 16.1 kilometers SSE 8.1 mph / 13.0 km/h - N/A   Mostly Cloudy
2:35 AM 44.6°F / 7.0°C 39.2°F / 4.0°C 81% 29.95 in / 1014.1 hPa 10.0 miles / 16.1 kilometers SSE 9.2 mph / 14.8 km/h - N/A   Overcast
2:55 AM 44.6°F / 7.0°C 39.2°F / 4.0°C 81% 29.94 in / 1013.8 hPa 10.0 miles / 16.1 kilometers SSE 8.1 mph / 13.0 km/h - N/A   Overcast
3:15 AM 44.6°F / 7.0°C 39.2°F / 4.0°C 81% 29.94 in / 1013.8 hPa 10.0 miles / 16.1 kilometers SSE 9.2 mph / 14.8 km/h - N/A   Overcast
3:35 AM 44.6°F / 7.0°C 39.2°F / 4.0°C 81% 29.93 in / 1013.4 hPa 10.0 miles / 16.1 kilometers SSE 5.8 mph / 9.3 km/h - N/A   Overcast
3:55 AM 44.6°F / 7.0°C 39.2°F / 4.0°C 81% 29.92 in / 1013.1 hPa 10.0 miles / 16.1 kilometers South 6.9 mph / 11.1 km/h - N/A   Overcast
4:15 AM 46.4°F / 8.0°C 39.2°F / 4.0°C 76% 29.93 in / 1013.4 hPa 10.0 miles / 16.1 kilometers SSE 9.2 mph / 14.8 km/h - N/A   Overcast
4:35 AM 44.6°F / 7.0°C 39.2°F / 4.0°C 81% 29.93 in / 1013.4 hPa 10.0 miles / 16.1 kilometers SSE 6.9 mph / 11.1 km/h 16.1 mph / 25.9 km/h N/A   Overcast
4:55 AM 44.6°F / 7.0°C 39.2°F / 4.0°C 81% 29.93 in / 1013.4 hPa 9.0 miles / 14.5 kilometers SSE 9.2 mph / 14.8 km/h - N/A   Overcast
5:35 AM 44.6°F / 7.0°C 39.2°F / 4.0°C 81% 29.92 in / 1013.1 hPa 10.0 miles / 16.1 kilometers SE 9.2 mph / 14.8 km/h - N/A   Overcast
5:55 AM 46.4°F / 8.0°C 39.2°F / 4.0°C 76% 29.91 in / 1012.8 hPa 10.0 miles / 16.1 kilometers SE 11.5 mph / 18.5 km/h - N/A   Overcast
6:15 AM 44.6°F / 7.0°C 39.2°F / 4.0°C 81% 29.90 in / 1012.4 hPa 10.0 miles / 16.1 kilometers SE 10.4 mph / 16.7 km/h 16.1 mph / 25.9 km/h N/A   Overcast
6:35 AM 46.4°F / 8.0°C 39.2°F / 4.0°C 76% 29.90 in / 1012.4 hPa 10.0 miles / 16.1 kilometers SE 9.2 mph / 14.8 km/h - N/A   Overcast
6:55 AM 46.4°F / 8.0°C 39.2°F / 4.0°C 76% 29.90 in / 1012.4 hPa 10.0 miles / 16.1 kilometers SSE 11.5 mph / 18.5 km/h 16.1 mph / 25.9 km/h N/A   Overcast
7:15 AM 46.4°F / 8.0°C 39.2°F / 4.0°C 76% 29.90 in / 1012.4 hPa 10.0 miles / 16.1 kilometers SSE 6.9 mph / 11.1 km/h - N/A   Overcast
7:35 AM 46.4°F / 8.0°C 39.2°F / 4.0°C 76% 29.91 in / 1012.8 hPa 10.0 miles / 16.1 kilometers SSE 8.1 mph / 13.0 km/h - N/A   Overcast
7:55 AM 46.4°F / 8.0°C 39.2°F / 4.0°C 76% 29.92 in / 1013.1 hPa 10.0 miles / 16.1 kilometers SE 10.4 mph / 16.7 km/h 17.3 mph / 27.8 km/h 0.01 in / 0.3 cm   Overcast
8:15 AM 44.6°F / 7.0°C 39.2°F / 4.0°C 81% 29.92 in / 1013.1 hPa 7.0 miles / 11.3 kilometers SSE 9.2 mph / 14.8 km/h - N/A   Overcast
8:35 AM 44.6°F / 7.0°C 41.0°F / 5.0°C 87% 29.92 in / 1013.1 hPa 6.0 miles / 9.7 kilometers SSE 13.8 mph / 22.2 km/h - N/A   Overcast
8:55 AM 44.6°F / 7.0°C 39.2°F / 4.0°C 81% 29.93 in / 1013.4 hPa 10.0 miles / 16.1 kilometers SSE 10.4 mph / 16.7 km/h - N/A   Overcast
9:15 AM 44.6°F / 7.0°C 41.0°F / 5.0°C 87% 29.92 in / 1013.1 hPa 10.0 miles / 16.1 kilometers SSE 15.0 mph / 24.1 km/h 19.6 mph / 31.5 km/h N/A   Overcast
9:35 AM 46.4°F / 8.0°C 41.0°F / 5.0°C 81% 29.92 in / 1013.1 hPa 10.0 miles / 16.1 kilometers SSE 12.7 mph / 20.4 km/h - N/A   Mostly Cloudy
9:55 AM 46.4°F / 8.0°C 41.0°F / 5.0°C 81% 29.92 in / 1013.1 hPa 10.0 miles / 16.1 kilometers SSE 15.0 mph / 24.1 km/h 21.9 mph / 35.2 km/h N/A   Mostly Cloudy
10:15 AM 48.2°F / 9.0°C 41.0°F / 5.0°C 76% 29.93 in / 1013.4 hPa 10.0 miles / 16.1 kilometers SSE 12.7 mph / 20.4 km/h 21.9 mph / 35.2 km/h N/A   Overcast
10:35 AM 48.2°F / 9.0°C 41.0°F / 5.0°C 76% 29.93 in / 1013.4 hPa 10.0 miles / 16.1 kilometers SSE 12.7 mph / 20.4 km/h 21.9 mph / 35.2 km/h N/A   Overcast
10:55 AM 48.2°F / 9.0°C 42.8°F / 6.0°C 82% 29.93 in / 1013.4 hPa 10.0 miles / 16.1 kilometers SSE 11.5 mph / 18.5 km/h 23.0 mph / 37.0 km/h N/A   Overcast
11:15 AM 48.2°F / 9.0°C 42.8°F / 6.0°C 82% 29.94 in / 1013.8 hPa 10.0 miles / 16.1 kilometers SSE 15.0 mph / 24.1 km/h 20.7 mph / 33.3 km/h N/A   Mostly Cloudy
11:35 AM 48.2°F / 9.0°C 42.8°F / 6.0°C 82% 29.94 in / 1013.8 hPa 10.0 miles / 16.1 kilometers SSE 12.7 mph / 20.4 km/h 19.6 mph / 31.5 km/h N/A   Mostly Cloudy
11:55 AM 48.2°F / 9.0°C 42.8°F / 6.0°C 82% 29.93 in / 1013.4 hPa 10.0 miles / 16.1 kilometers SSE 10.4 mph / 16.7 km/h 17.3 mph / 27.8 km/h N/A   Mostly Cloudy
12:15 PM 46.4°F / 8.0°C 42.8°F / 6.0°C 87% 29.94 in / 1013.8 hPa 7.0 miles / 11.3 kilometers SSW 8.1 mph / 13.0 km/h - 0.01 in / 0.3 cm   Overcast
12:35 PM 48.2°F / 9.0°C 44.6°F / 7.0°C 87% 29.93 in / 1013.4 hPa 10.0 miles / 16.1 kilometers SSE 10.4 mph / 16.7 km/h - 0.02 in / 0.5 cm   Mostly Cloudy
12:55 PM 50.0°F / 10.0°C 44.6°F / 7.0°C 82% 29.93 in / 1013.4 hPa 10.0 miles / 16.1 kilometers SSE 8.1 mph / 13.0 km/h - 0.02 in / 0.5 cm   Scattered Clouds
1:15 PM 50.0°F / 10.0°C 42.8°F / 6.0°C 76% 29.92 in / 1013.1 hPa 10.0 miles / 16.1 kilometers SE 4.6 mph / 7.4 km/h - N/A   Partly Cloudy
1:35 PM 51.8°F / 11.0°C 42.8°F / 6.0°C 71% 29.91 in / 1012.8 hPa 10.0 miles / 16.1 kilometers SSE 8.1 mph / 13.0 km/h - N/A   Partly Cloudy
1:55 PM 51.8°F / 11.0°C 42.8°F / 6.0°C 71% 29.91 in / 1012.8 hPa 10.0 miles / 16.1 kilometers SSE 8.1 mph / 13.0 km/h - N/A   Mostly Cloudy
2:15 PM 51.8°F / 11.0°C 42.8°F / 6.0°C 71% 29.90 in / 1012.4 hPa 10.0 miles / 16.1 kilometers SSE 10.4 mph / 16.7 km/h - N/A   Mostly Cloudy
2:35 PM 53.6°F / 12.0°C 42.8°F / 6.0°C 67% 29.91 in / 1012.8 hPa 10.0 miles / 16.1 kilometers SE 10.4 mph / 16.7 km/h - N/A   Mostly Cloudy
2:55 PM 53.6°F / 12.0°C 42.8°F / 6.0°C 67% 29.90 in / 1012.4 hPa 10.0 miles / 16.1 kilometers SSE 9.2 mph / 14.8 km/h - N/A   Mostly Cloudy
3:15 PM 51.8°F / 11.0°C 41.0°F / 5.0°C 67% 29.90 in / 1012.4 hPa 10.0 miles / 16.1 kilometers SSE 11.5 mph / 18.5 km/h 17.3 mph / 27.8 km/h N/A   Mostly Cloudy
3:35 PM 51.8°F / 11.0°C 41.0°F / 5.0°C 67% 29.90 in / 1012.4 hPa 10.0 miles / 16.1 kilometers SSE 13.8 mph / 22.2 km/h 17.3 mph / 27.8 km/h N/A   Mostly Cloudy
3:55 PM 51.8°F / 11.0°C 41.0°F / 5.0°C 67% 29.90 in / 1012.4 hPa 10.0 miles / 16.1 kilometers SSE 11.5 mph / 18.5 km/h 16.1 mph / 25.9 km/h N/A   Mostly Cloudy
4:15 PM 51.8°F / 11.0°C 39.2°F / 4.0°C 62% 29.91 in / 1012.8 hPa 10.0 miles / 16.1 kilometers SSE 10.4 mph / 16.7 km/h - N/A   Mostly Cloudy
4:35 PM 51.8°F / 11.0°C 39.2°F / 4.0°C 62% 29.92 in / 1013.1 hPa 10.0 miles / 16.1 kilometers SSE 10.4 mph / 16.7 km/h 17.3 mph / 27.8 km/h N/A   Overcast
4:55 PM 50.0°F / 10.0°C 39.2°F / 4.0°C 66% 29.93 in / 1013.4 hPa 10.0 miles / 16.1 kilometers South 12.7 mph / 20.4 km/h 18.4 mph / 29.6 km/h N/A   Overcast
5:15 PM 46.4°F / 8.0°C 39.2°F / 4.0°C 76% 29.94 in / 1013.8 hPa 7.0 miles / 11.3 kilometers South 5.8 mph / 9.3 km/h - 0.03 in / 0.8 cm   Mostly Cloudy
5:35 PM 46.4°F / 8.0°C 41.0°F / 5.0°C 81% 29.94 in / 1013.8 hPa 10.0 miles / 16.1 kilometers Calm Calm - 0.03 in / 0.8 cm   Overcast
5:55 PM 44.6°F / 7.0°C 42.8°F / 6.0°C 93% 29.94 in / 1013.8 hPa 10.0 miles / 16.1 kilometers SE 3.5 mph / 5.6 km/h - 0.03 in / 0.8 cm   Overcast
6:15 PM 46.4°F / 8.0°C 42.8°F / 6.0°C 87% 29.94 in / 1013.8 hPa 10.0 miles / 16.1 kilometers SSE 5.8 mph / 9.3 km/h - N/A   Overcast
6:35 PM 46.4°F / 8.0°C 41.0°F / 5.0°C 81% 29.95 in / 1014.1 hPa 10.0 miles / 16.1 kilometers SSE 5.8 mph / 9.3 km/h - N/A   Overcast
7:15 PM 46.4°F / 8.0°C 41.0°F / 5.0°C 81% 29.96 in / 1014.4 hPa 10.0 miles / 16.1 kilometers SSE 6.9 mph / 11.1 km/h - N/A   Overcast
7:35 PM 46.4°F / 8.0°C 41.0°F / 5.0°C 81% 29.97 in / 1014.8 hPa 10.0 miles / 16.1 kilometers SSE 4.6 mph / 7.4 km/h - N/A   Mostly Cloudy
7:55 PM 46.4°F / 8.0°C 39.2°F / 4.0°C 76% 29.97 in / 1014.8 hPa 10.0 miles / 16.1 kilometers SSE 6.9 mph / 11.1 km/h - N/A   Overcast
8:15 PM 44.6°F / 7.0°C 41.0°F / 5.0°C 87% 29.98 in / 1015.1 hPa 10.0 miles / 16.1 kilometers SSE 10.4 mph / 16.7 km/h - N/A   Overcast
8:35 PM 44.6°F / 7.0°C 39.2°F / 4.0°C 81% 29.98 in / 1015.1 hPa 10.0 miles / 16.1 kilometers SSE 6.9 mph / 11.1 km/h - N/A   Overcast
8:55 PM 44.6°F / 7.0°C 39.2°F / 4.0°C 81% 29.99 in / 1015.5 hPa 10.0 miles / 16.1 kilometers South 8.1 mph / 13.0 km/h - 0.01 in / 0.3 cm   Overcast
9:15 PM 44.6°F / 7.0°C 39.2°F / 4.0°C 81% 29.99 in / 1015.5 hPa 10.0 miles / 16.1 kilometers SSE 11.5 mph / 18.5 km/h - N/A   Mostly Cloudy
9:35 PM 44.6°F / 7.0°C 39.2°F / 4.0°C 81% 30.00 in / 1015.8 hPa 10.0 miles / 16.1 kilometers SSE 8.1 mph / 13.0 km/h - N/A   Mostly Cloudy
9:55 PM 44.6°F / 7.0°C 39.2°F / 4.0°C 81% 30.01 in / 1016.1 hPa 10.0 miles / 16.1 kilometers SSE 6.9 mph / 11.1 km/h - N/A   Overcast
10:15 PM 44.6°F / 7.0°C 39.2°F / 4.0°C 81% 30.01 in / 1016.1 hPa 10.0 miles / 16.1 kilometers SSE 6.9 mph / 11.1 km/h - N/A   Overcast
10:35 PM 44.6°F / 7.0°C 39.2°F / 4.0°C 81% 30.01 in / 1016.1 hPa 10.0 miles / 16.1 kilometers SSE 9.2 mph / 14.8 km/h - N/A   Overcast
11:15 PM 44.6°F / 7.0°C 39.2°F / 4.0°C 81% 30.02 in / 1016.5 hPa 10.0 miles / 16.1 kilometers SSE 9.2 mph / 14.8 km/h - N/A   Overcast
11:35 PM 44.6°F / 7.0°C 39.2°F / 4.0°C 81% 30.03 in / 1016.8 hPa 10.0 miles / 16.1 kilometers SSE 5.8 mph / 9.3 km/h - N/A   Overcast
11:55 PM 44.6°F / 7.0°C 39.2°F / 4.0°C 81% 30.02 in / 1016.5 hPa 10.0 miles / 16.1 kilometers SE 9.2 mph / 14.8 km/h - N/A   Overcast
Moon Phase
Feb. 05 Feb. 10 Feb. 17 Feb. 25 Mar. 04
Sunrise:07:28 AM (PST) Moon Rise:03:22 AM (PST)2/5
Sunset:05:23 PM (PST) Moon Set:12:39 PM (PST)2/5

Copyright © 2014 The Weather Underground, Inc.